TimeEST,TemperatureF,Dew PointF,Humidity,Sea Level PressureIn,VisibilityMPH,Wind Direction,Wind SpeedMPH,Gust SpeedMPH,PrecipitationIn,Events,Conditions,WindDirDegrees,DateUTC
12:15 AM,32.0,28.4,87,29.88,7.0,North,19.6,28.8,N/A,,Overcast,360,2013-03-08 05:15:00
12:35 AM,33.8,26.6,75,29.88,8.0,North,19.6,29.9,N/A,,Overcast,10,2013-03-08 05:35:00
12:55 AM,33.8,26.6,75,29.87,10.0,North,19.6,35.7,N/A,,Overcast,10,2013-03-08 05:55:00
1:15 AM,33.8,26.6,75,29.87,10.0,North,17.3,31.1,N/A,,Overcast,10,2013-03-08 06:15:00
1:35 AM,33.8,26.6,75,29.87,10.0,North,21.9,28.8,N/A,,Overcast,10,2013-03-08 06:35:00
1:55 AM,33.8,26.6,75,29.87,10.0,North,19.6,26.5,N/A,,Overcast,10,2013-03-08 06:55:00
2:35 AM,33.8,26.6,75,29.86,10.0,North,20.7,28.8,N/A,,Overcast,10,2013-03-08 07:35:00
2:55 AM,33.8,26.6,75,29.86,10.0,North,21.9,29.9,N/A,,Overcast,10,2013-03-08 07:55:00
3:15 AM,33.8,24.8,70,29.86,10.0,North,19.6,28.8,N/A,,Overcast,10,2013-03-08 08:15:00
3:35 AM,33.8,26.6,75,29.86,10.0,North,21.9,29.9,N/A,,Overcast,10,2013-03-08 08:35:00
3:55 AM,32.0,26.6,80,29.86,5.0,North,20.7,28.8,N/A,,Overcast,10,2013-03-08 08:55:00
4:15 AM,32.0,26.6,80,29.86,2.0,North,17.3,26.5,N/A,,Overcast,10,2013-03-08 09:15:00
4:55 AM,32.0,26.6,80,29.86,2.0,North,16.1,26.5,N/A,,Overcast,10,2013-03-08 09:55:00
5:15 AM,32.0,26.6,80,29.85,2.5,North,17.3,27.6,N/A,,Overcast,10,2013-03-08 10:15:00
5:35 AM,32.0,26.6,80,29.85,2.5,North,18.4,27.6,N/A,,Overcast,10,2013-03-08 10:35:00
6:15 AM,32.0,26.6,80,29.85,2.5,North,18.4,28.8,N/A,,Overcast,10,2013-03-08 11:15:00
6:35 AM,32.0,26.6,80,29.85,3.0,North,21.9,29.9,N/A,,Overcast,10,2013-03-08 11:35:00
6:55 AM,32.0,26.6,80,29.85,5.0,North,19.6,27.6,N/A,,Overcast,10,2013-03-08 11:55:00
7:15 AM,32.0,26.6,80,29.86,1.5,North,19.6,31.1,N/A,,Overcast,10,2013-03-08 12:15:00
7:35 AM,32.0,26.6,80,29.86,2.0,North,18.4,28.8,N/A,,Overcast,10,2013-03-08 12:35:00
7:55 AM,32.0,26.6,80,29.86,9.0,North,21.9,29.9,N/A,,Overcast,10,2013-03-08 12:55:00
8:15 AM,32.0,26.6,80,29.87,2.0,North,20.7,29.9,N/A,,Overcast,10,2013-03-08 13:15:00
8:35 AM,32.0,26.6,80,29.87,1.8,North,24.2,33.4,N/A,,Overcast,10,2013-03-08 13:35:00
8:55 AM,32.0,26.6,80,29.87,1.5,North,18.4,28.8,N/A,,Overcast,10,2013-03-08 13:55:00
9:15 AM,32.0,26.6,80,29.87,3.0,North,20.7,31.1,N/A,,Overcast,10,2013-03-08 14:15:00
9:55 AM,32.0,26.6,80,29.87,3.0,North,20.7,31.1,N/A,,Overcast,10,2013-03-08 14:55:00
10:15 AM,32.0,26.6,80,29.87,1.5,North,21.9,32.2,N/A,,Overcast,10,2013-03-08 15:15:00
10:35 AM,32.0,26.6,80,29.88,1.0,North,20.7,28.8,N/A,,Overcast,10,2013-03-08 15:35:00
10:55 AM,32.0,26.6,80,29.88,1.5,North,24.2,32.2,N/A,,Overcast,10,2013-03-08 15:55:00
11:15 AM,32.0,26.6,80,29.88,6.0,North,24.2,34.5,N/A,,Overcast,10,2013-03-08 16:15:00
11:35 AM,32.0,26.6,80,29.89,3.0,NNE,21.9,32.2,N/A,,Overcast,20,2013-03-08 16:35:00
12:15 PM,32.0,26.6,80,29.89,4.0,North,20.7,32.2,N/A,,Overcast,10,2013-03-08 17:15:00
12:35 PM,33.8,26.6,75,29.89,10.0,North,19.6,35.7,N/A,,Overcast,10,2013-03-08 17:35:00
12:55 PM,33.8,26.6,75,29.89,10.0,NNE,16.1,35.7,N/A,,Overcast,20,2013-03-08 17:55:00
1:15 PM,33.8,26.6,75,29.89,10.0,North,20.7,36.8,N/A,,Overcast,10,2013-03-08 18:15:00
1:35 PM,33.8,26.6,75,29.90,10.0,North,26.5,35.7,N/A,,Overcast,10,2013-03-08 18:35:00
1:55 PM,33.8,26.6,75,29.90,10.0,NNE,23.0,38.0,N/A,,Overcast,20,2013-03-08 18:55:00
2:35 PM,33.8,26.6,75,29.91,5.0,NNE,20.7,36.8,N/A,,Overcast,20,2013-03-08 19:35:00
2:55 PM,33.8,26.6,75,29.91,10.0,NNE,23.0,33.4,N/A,,Overcast,20,2013-03-08 19:55:00
3:15 PM,33.8,28.4,81,29.92,4.0,North,21.9,33.4,N/A,,Overcast,10,2013-03-08 20:15:00
3:35 PM,33.8,28.4,81,29.92,4.0,North,24.2,36.8,N/A,,Overcast,10,2013-03-08 20:35:00
3:55 PM,33.8,28.4,81,29.93,10.0,NNE,21.9,32.2,N/A,,Overcast,20,2013-03-08 20:55:00
4:15 PM,35.6,28.4,75,29.94,10.0,NNE,24.2,38.0,N/A,,Overcast,20,2013-03-08 21:15:00
4:35 PM,35.6,28.4,75,29.94,10.0,NNE,24.2,38.0,N/A,,Overcast,20,2013-03-08 21:35:00
5:15 PM,35.6,30.2,81,29.96,10.0,NNE,24.2,34.5,N/A,,Overcast,20,2013-03-08 22:15:00
5:35 PM,35.6,30.2,81,29.97,10.0,NNE,26.5,36.8,N/A,,Overcast,20,2013-03-08 22:35:00
5:55 PM,35.6,30.2,81,29.98,10.0,NNE,26.5,35.7,N/A,,Overcast,20,2013-03-08 22:55:00
6:15 PM,35.6,30.2,81,29.99,10.0,NNE,25.3,34.5,N/A,,Overcast,20,2013-03-08 23:15:00
6:35 PM,35.6,30.2,81,29.99,10.0,NNE,24.2,36.8,N/A,,Overcast,30,2013-03-08 23:35:00
6:55 PM,35.6,30.2,81,30.00,10.0,NNE,20.7,41.4,N/A,,Overcast,20,2013-03-08 23:55:00
7:35 PM,37.4,30.2,75,30.00,10.0,NNE,18.4,29.9,N/A,,Mostly Cloudy,30,2013-03-09 00:35:00
7:55 PM,37.4,30.2,75,30.01,10.0,NNE,17.3,29.9,N/A,,Overcast,20,2013-03-09 00:55:00
8:15 PM,39.2,28.4,65,30.02,10.0,North,18.4,25.3,N/A,,Overcast,10,2013-03-09 01:15:00
8:55 PM,41.0,24.8,53,30.03,10.0,North,18.4,28.8,N/A,,Overcast,10,2013-03-09 01:55:00
9:15 PM,41.0,24.8,53,30.02,10.0,NNE,21.9,31.1,N/A,,Overcast,20,2013-03-09 02:15:00
9:55 PM,41.0,23.0,49,30.03,10.0,North,20.7,35.7,N/A,,Scattered Clouds,10,2013-03-09 02:55:00
10:15 PM,41.0,23.0,49,30.03,10.0,NNE,19.6,29.9,N/A,,Clear,20,2013-03-09 03:15:00
10:35 PM,41.0,21.2,45,30.04,10.0,NNE,18.4,33.4,N/A,,Clear,20,2013-03-09 03:35:00
10:55 PM,41.0,21.2,45,30.04,10.0,NNE,21.9,33.4,N/A,,Clear,20,2013-03-09 03:55:00
11:15 PM,39.2,21.2,49,30.03,10.0,North,21.9,32.2,N/A,,Clear,10,2013-03-09 04:15:00
11:35 PM,39.2,21.2,49,30.03,10.0,NNE,25.3,34.5,N/A,,Clear,20,2013-03-09 04:35:00
11:55 PM,39.2,21.2,49,30.04,10.0,NNE,20.7,29.9,N/A,,Clear,20,2013-03-09 04:55:00